Location: Eastlake (historical)
(39.0077°N, 122.6678°W)
Time: 22:56:14
(UTC+00:00)

CZ-2C R/B - Visible Passes

Search period start: 10 April 2021 00:00
Search period end: 20 April 2021 00:00
Orbit: 784 x 871 km, 98.2° (Epoch: 10 April)

Date Brightness Start Highest point End Pass type
(mag) Time Alt. Az. Time Alt. Az. Time Alt. Az.
10 Apr 5.4 04:28:05 10° NNW 04:31:38 19° WNW 04:35:10 10° WSW visible
11 Apr 4.8 04:08:53 10° N 04:13:11 27° WNW 04:17:31 10° SW visible
12 Apr 4.1 03:49:55 10° N 03:54:43 40° WNW 03:59:32 10° SW visible
13 Apr 3.3 03:31:06 10° N 03:36:12 60° WNW 03:41:18 10° SSW visible
14 Apr 2.6 03:12:25 10° NNE 03:17:37 89° W 03:22:51 10° SSW visible
14 Apr 6.0 04:55:59 10° NW 04:57:07 11° WNW 04:58:14 10° WNW visible
14 Apr 5.8 12:56:50 10° E 13:00:01 16° ENE 13:03:09 10° NNE visible
15 Apr 5.6 04:35:42 10° NNW 04:38:45 16° WNW 04:41:51 10° W visible
15 Apr 6.3 12:40:24 10° ENE 12:41:40 11° ENE 12:42:56 10° NE visible
16 Apr 5.1 04:16:20 10° NNW 04:20:21 23° WNW 04:24:24 10° WSW visible
17 Apr 4.4 03:57:16 10° N 04:01:54 34° WNW 04:06:34 10° SW visible
18 Apr 3.7 03:38:23 10° N 03:43:24 50° WNW 03:48:26 10° SW visible
19 Apr 2.9 03:19:38 10° N 03:24:50 75° WNW 03:30:05 10° SSW visible
